This is the latest recevied weather packets stored in our database for station/object W2TAO. If no packets are shown the sender has not sent any weather packets the latest 1 day(s).
| Time | Temp. | Humidity | Pressure | Rain* | Wind** | Luminosity | Snow |
|---|---|---|---|---|---|---|---|
| 1778035238 | 20° C | 52% | 1010.8 hPa | 0 mm | - | 0 W/m² | - |
| 1778034934 | 20.56° C | 49% | 1010.8 hPa | 0 mm | - | 0 W/m² | - |
| 1778034632 | 20.56° C | 50% | 1010.6 hPa | 0 mm | - | 0 W/m² | - |
| 1778034329 | 20.56° C | 50% | 1010.7 hPa | 0 mm | - | 0 W/m² | - |
| 1778033724 | 21.11° C | 49% | 1010.5 hPa | 0 mm | - | 0 W/m² | - |
| 1778033421 | 21.11° C | 47% | 1010.6 hPa | 0 mm | - | 0 W/m² | - |
| 1778032816 | 21.11° C | 48% | 1010.7 hPa | 0 mm | - | 0 W/m² | - |
| 1778032513 | 21.11° C | 48% | 1010.4 hPa | 0 mm | - | 0 W/m² | - |
| 1778032210 | 21.11° C | 47% | 1010.4 hPa | 0 mm | - | 0 W/m² | - |
| 1778031301 | 21.67° C | 47% | 1010 hPa | 0 mm | - | 0 W/m² | - |
| 1778030997 | 21.67° C | 46% | 1010.2 hPa | 0 mm | - | 0 W/m² | - |
| 1778030391 | 21.67° C | 47% | 1009.9 hPa | 0 mm | - | 0 W/m² | - |
| 1778030088 | 21.67° C | 48% | 1010 hPa | 0 mm | - | 0 W/m² | - |
| 1778029784 | 21.67° C | 46% | 1010.1 hPa | 0 mm | - | 0 W/m² | - |
| 1778029484 | 21.67° C | 47% | 1010.1 hPa | 0 mm | - | 0 W/m² | - |
| 1778029179 | 21.67° C | 46% | 1009.8 hPa | 0 mm | - | 0 W/m² | - |
| 1778028878 | 21.67° C | 48% | 1009.8 hPa | 0 mm | - | 0 W/m² | - |
| 1778028572 | 21.67° C | 47% | 1009.7 hPa | 0 mm | - | 0 W/m² | - |
| 1778027966 | 21.67° C | 49% | 1009.6 hPa | 0 mm | - | 0 W/m² | - |
| 1778027663 | 22.22° C | 47% | 1009.6 hPa | 0 mm | - | 0 W/m² | - |
| 1778027360 | 21.67° C | 47% | 1009.5 hPa | 0 mm | - | 0 W/m² | - |
| 1778026751 | 22.22° C | 46% | 1009.5 hPa | 0 mm | - | 0 W/m² | - |
| 1778026146 | 22.22° C | 48% | 1009.3 hPa | 0 mm | - | 0 W/m² | - |
| 1778023724 | 22.78° C | 45% | 1009.3 hPa | 0 mm | - | 3 W/m² | - |
| 1778023422 | 22.78° C | 45% | 1009.2 hPa | 0 mm | - | 4 W/m² | - |
* Rain latest hour (hover to see other rain measurements)
** Current wind speed in m/s (hover to see current wind gust speed)